Dewpoint
48 48 48 49 50 50 50 50 50 50 49 50 50 49 50 50 51 52 53 51 50 49 50 52 55 58 54 47 42 47 60 56 46 43 37 36 35 34 33 32 32 32 31 32 33 32 31
46 45 47 47 48 49 50 50 50 50 50 49 50 50 50 50 50 50 52 52 51 50 50 51 53 56 52 44 45 48 48 47 44 42 40 37 35 36 34 33 31 32 30 30 30 30 30
44 44 45 46 47 47 48 50 49 50 49 49 49 49 50 49 49 50 49 51 52 51 50 50 52 53 51 46 44 48 47 48 47 46 42 43 39 37 36 35 35 34 31 32 32 31 30
43 43 43 44 45 46 46 47 49 50 50 48 48 49 49 49 50 50 50 51 51 52 51 50 51 50 46 51 51 49 47 45 46 47 45 46 46 40 38 37 35 32 31 29 30 31 30
41 41 42 43 44 45 46 46 47 48 48 49 49 49 49 49 49 49 49 50 50 50 49 51 48 48 45 53 47 47 46 41 42 45 46 44 44 42 38 36 32 32 28 29 28 30 29
43 41 42 42 44 44 44 45 45 46 46 47 48 49 48 48 48 48 48 49 49 49 48 49 49 39 43 46 47 47 46 44 39 41 42 43 43 38 36 35 29 29 30 30 27 28 29
40 41 41 40 42 41 43 44 45 45 45 46 47 48 48 48 48 48 47 46 40 41 41 36 39 40 42 48 46 46 46 44 42 39 35 43 38 36 34 35 34 30 28 28 29 30 28
40 39 40 41 42 42 42 43 44 44 45 45 46 47 47 48 48 47 46 40 38 38 35 39 41 43 44 46 47 43 44 41 41 36 35 38 36 36 36 36 35 34 32 30 30 30 30
40 40 38 40 41 42 42 41 42 43 44 45 45 45 46 46 47 46 43 41 44 43 36 33 35 38 39 41 40 45 42 40 38 36 34 29 28 34 36 36 34 34 32 31 30 30 32
39 39 39 39 39 39 39 40 41 41 42 44 45 45 46 47 42 43 41 43 46 45 29 25 31 31 37 40 39 46 45 41 38 35 34 31 28 31 33 33 35 32 34 33 31 30 26
39 39 39 39 39 39 39 40 39 40 41 43 44 44 46 46 43 40 41 45 45 42 14 22 27 34 32 39 41 43 48 43 39 35 35 35 34 30 31 32 35 31 33 33 33 32 31
41 39 39 38 39 39 39 39 39 40 41 42 43 44 45 44 45 44 45 44 43 27 12 20 28 35 34 36 35 38 43 47 46 40 35 34 34 33 31 33 36 36 34 34 34 32 28
43 41 40 40 39 39 39 39 39 39 40 41 43 43 44 45 39 46 46 41 25 17 19 17 27 32 34 33 35 33 41 42 39 37 37 37 34 32 34 32 34 36 35 34 32 31 26
43 43 41 41 41 41 40 40 40 40 40 41 43 44 43 45 46 46 39 32 20 20 19 21 21 29 32 34 34 34 36 38 41 39 36 35 34 38 37 34 32 34 33 32 25 23 23
41 43 43 41 41 40 40 40 41 41 41 42 42 43 43 44 46 45 34 22 20 18 19 16 16 18 23 30 34 35 35 37 38 40 35 36 36 37 36 35 33 33 34 38 32 31 30
39 41 41 42 42 41 40 40 40 40 41 42 41 38 37 43 46 41 30 25 23 20 16 15 11 18 17 21 27 35 33 37 37 40 41 35 32 34 37 36 35 34 37 35 35 29 27
37 39 41 41 42 42 41 40 40 39 41 41 39 34 39 45 45 35 24 24 24 23 21 16 14 12 15 12 13 20 32 33 37 37 40 37 35 35 38 37 36 35 33 37 37 34 28
38 38 38 40 40 41 42 41 40 39 40 40 37 29 41 45 32 32 26 24 26 22 23 22 20 19 15 13 12 17 21 26 36 35 30 39 37 33 35 36 38 36 35 37 34 34 33
38 38 39 38 39 40 39 41 41 38 39 39 32 33 41 42 26 27 29 29 26 23 21 20 20 20 20 16 14 15 17 17 16 28 32 34 35 31 29 33 36 36 35 35 36 35 32
41 39 37 37 38 40 39 39 39 37 39 39 33 26 33 36 34 29 27 28 28 27 25 25 22 22 20 23 21 17 17 18 25 23 35 36 33 31 28 29 32 32 35 34 34 32 31
38 39 38 37 38 40 38 36 38 37 39 38 34 27 31 26 28 30 28 25 24 24 26 27 25 24 21 21 22 21 21 21 21 25 32 34 27 29 29 29 27 27 30 34 34 33 32
40 38 40 38 39 41 38 38 37 36 38 36 28 29 31 29 31 29 29 28 28 28 29 26 25 23 24 22 22 20 21 23 20 22 24 32 23 24 23 23 19 25 24 28 29 35 35
38 39 40 38 39 40 40 39 37 37 38 35 36 35 31 26 28 27 26 25 25 25 28 27 25 25 25 24 24 24 25 25 26 24 24 28 25 23 18 17 24 21 25 24 32 35 38
37 40 40 39 40 39 38 37 37 38 37 37 37 34 28 22 25 24 22 24 25 26 26 26 26 27 27 28 28 26 25 24 25 25 26 24 25 25 19 19 11 15 19 29 32 32 33
37 39 39 39 40 39 39 39 39 39 38 38 38 35 30 23 25 23 23 25 26 27 27 27 28 29 30 28 28 25 24 23 22 24 24 26 25 22 18 15 16 15 14 16 20 26 26
37 35 37 38 39 39 38 39 39 39 39 39 37 39 34 27 24 26 25 25 24 25 27 28 30 31 31 31 27 19 16 18 16 19 22 22 24 21 19 14 11 13 10 15 14 14 17
38 37 36 37 38 37 38 38 39 39 39 39 37 39 35 27 29 32 28 26 29 29 28 31 33 34 35 28 23 21 18 17 15 16 19 21 22 18 19 17 17 17 15 16 16 18 21
38 37 36 36 36 35 36 37 38 37 36 36 37 39 36 31 31 33 33 32 33 32 28 32 31 31 30 26 25 24 22 21 20 15 17 19 19 19 21 18 15 18 16 16 18 21 21
37 36 36 36 36 35 35 36 36 35 36 37 35 39 40 34 32 37 35 35 35 37 34 33 33 31 31 28 27 26 23 23 21 16 19 18 22 21 21 21 26 23 24 26 22 23 37
Lifted_Index
11 10 9 8 7 7 7 8 8 9 9 9 10 10 10 10 10 10 10 11 10 9 7 5 5 5 6 8 8 7 6 6 6 5 5 6 5 5 5 5 5 5 4 5 5 5 5
11 10 9 8 7 7 7 7 7 7 8 8 9 10 10 10 10 10 10 11 11 10 8 7 5 5 6 7 8 7 7 6 5 5 5 5 5 5 5 5 5 5 4 4 5 4 4
12 11 9 8 7 7 6 5 5 4 5 6 7 8 9 10 10 10 11 11 11 11 10 9 7 5 5 6 7 7 7 6 5 5 5 5 5 5 5 5 5 5 4 4 4 4 4
12 11 10 9 8 7 6 5 3 3 3 3 5 7 8 9 10 10 10 11 11 11 11 11 9 6 4 5 5 6 7 7 6 5 5 5 5 5 5 5 5 5 4 4 4 4 4
11 11 10 9 8 7 6 5 3 2 2 2 2 4 6 8 9 9 10 10 11 11 11 11 10 7 5 5 5 4 5 6 6 5 5 4 5 5 5 5 4 4 4 4 3 3 4
11 11 10 9 8 7 6 5 4 3 3 2 2 2 4 6 8 9 10 10 10 11 11 11 10 8 6 6 5 4 3 4 5 5 5 4 4 4 5 4 4 4 4 3 3 3 3
11 11 10 9 8 8 7 6 4 3 3 3 2 2 2 4 6 8 9 10 10 11 11 11 10 8 7 6 6 5 3 3 3 4 5 4 4 4 5 5 4 4 4 3 3 3 3
12 11 10 9 8 8 7 6 5 4 3 3 3 2 2 2 4 6 8 9 10 10 11 11 10 9 7 7 6 6 4 2 2 2 3 4 4 5 5 5 5 4 4 4 4 3 3
12 11 10 9 9 8 8 7 6 5 4 3 3 3 2 2 2 4 7 8 9 9 10 11 11 10 9 7 6 6 5 3 1 1 1 2 3 4 5 5 4 4 4 4 4 3 3
12 11 10 10 9 9 8 8 7 6 4 4 3 3 3 2 2 3 4 6 8 8 9 10 11 10 9 8 6 6 5 4 2 1 1 1 2 3 4 4 4 4 4 4 3 3 3
12 11 10 10 9 9 9 8 7 6 5 4 3 3 3 3 3 3 3 4 6 6 6 8 10 9 9 8 7 6 5 4 3 2 1 1 2 2 2 3 3 4 4 3 3 3 3
11 11 10 9 9 9 8 8 7 6 5 4 4 3 3 3 3 3 2 2 3 4 5 7 8 8 8 7 7 6 5 4 3 2 2 2 2 2 2 2 3 3 3 3 3 2 2
10 10 9 9 9 8 8 8 7 6 5 4 4 3 4 4 3 3 2 2 2 3 5 6 7 6 6 6 6 6 4 4 4 3 2 2 2 2 2 3 3 3 2 2 1 1 1
10 9 9 8 8 7 7 7 7 6 5 4 3 3 3 3 3 3 2 2 1 3 4 5 5 5 5 5 5 4 4 3 3 3 2 2 2 2 3 2 2 2 2 1 0 0 1
10 9 8 8 7 7 7 6 6 5 5 4 3 3 3 3 3 3 3 2 2 3 3 4 4 4 4 4 3 3 2 2 3 2 2 2 2 2 2 2 2 2 2 1 1 0 0
11 10 9 8 7 7 7 6 6 5 5 4 3 3 3 3 3 3 3 3 3 3 3 3 3 3 4 4 3 2 1 1 1 2 2 2 2 2 2 2 2 2 2 2 1 1 0
11 10 9 8 7 7 6 6 6 5 5 4 3 3 2 2 2 3 3 4 4 4 3 3 3 3 4 4 4 2 1 1 1 1 1 1 1 2 2 1 2 2 2 1 1 1 1
11 11 9 8 7 7 6 6 6 6 5 5 4 3 2 1 1 2 3 4 4 4 4 4 3 3 3 4 4 3 3 2 2 2 2 1 1 1 1 1 1 1 1 1 1 2 2
11 10 9 9 8 7 6 6 6 6 6 5 5 4 2 1 1 2 3 4 4 4 4 4 4 4 3 3 3 4 4 4 5 4 4 3 1 1 1 1 0 1 1 1 1 1 2
10 10 9 9 8 7 7 6 6 6 6 6 5 4 3 2 1 2 3 3 4 4 4 4 5 4 4 3 3 4 4 5 5 5 5 5 3 2 2 1 1 1 1 1 1 1 2
10 10 9 9 8 7 7 7 6 6 6 6 6 5 4 3 2 2 2 3 3 4 4 4 4 4 4 4 4 4 4 4 4 5 5 5 5 5 4 3 2 2 1 0 0 0 1
10 10 9 8 8 7 7 7 7 7 6 6 6 5 4 3 3 2 2 3 3 3 4 4 4 4 4 4 4 4 4 4 4 4 4 5 6 6 5 5 4 2 1 1 1 0 0
10 10 9 8 7 7 7 7 7 7 7 7 6 5 5 4 3 2 2 3 3 4 4 4 4 4 4 4 3 3 4 4 4 4 4 5 6 6 6 6 5 3 3 2 2 2 1
10 10 9 8 7 7 7 7 7 7 7 7 6 6 5 5 4 4 3 3 3 4 4 4 4 4 4 3 3 3 4 4 4 4 4 4 5 5 5 5 5 5 5 4 3 3 2
11 10 9 8 8 7 7 7 7 7 7 7 6 5 5 5 5 4 4 4 4 4 5 5 4 4 4 3 3 3 3 4 4 4 5 4 4 4 4 4 4 6 7 6 4 4 4
11 10 10 9 8 8 7 7 7 7 6 6 6 5 5 5 5 4 4 4 4 4 4 4 4 3 3 3 3 3 3 3 4 4 5 4 4 4 3 3 4 5 7 7 6 5 5
11 11 10 9 8 8 8 7 7 7 7 6 5 4 4 4 4 4 4 4 4 4 4 3 3 3 2 3 3 3 3 3 3 4 4 4 4 3 3 3 3 5 7 7 6 5 5
10 10 10 9 9 9 8 8 8 7 7 6 5 4 4 4 4 4 4 4 3 3 3 3 3 2 2 2 3 3 3 3 3 3 3 3 3 3 3 3 4 5 6 6 6 6 6
10 10 10 10 9 9 9 8 8 7 7 6 5 4 3 3 3 4 4 4 3 3 3 3 3 2 2 2 2 3 3 3 2 2 2 3 3 3 3 3 4 5 6 5 5 6 6